Location: Unspecified
(0.0000°N, 0.0000°E)
Time: 16:21:22
(UTC+00:00)

SURFSAT - Visible Passes

Search period start: 30 November 2022 00:00
Search period end: 10 December 2022 00:00
Orbit: 337 x 349 km, 93.0° (Epoch: 29 November)

Date Brightness Start Highest point End Pass type
(mag) Time Alt. Az. Time Alt. Az. Time Alt. Az.
30 Nov ? 18:27:19 10° NNE 18:29:59 46° E 18:32:40 10° S visible
01 Dec ? 18:50:11 10° NNW 18:52:48 40° W 18:55:26 10° SSW visible
02 Dec ? 19:14:07 10° NW 19:15:24 13° W 19:16:41 10° WSW visible
04 Dec ? 18:26:30 10° N 18:29:14 75° E 18:31:59 10° S visible
05 Dec ? 18:48:49 10° NNW 18:51:12 27° W 18:53:37 10° SW visible
08 Dec ? 18:22:28 10° N 18:25:10 82° W 18:27:54 10° S visible
09 Dec ? 18:44:06 10° NNW 18:46:18 22° W 18:48:32 10° SW visible
